Regional Weather Roundup
Issued by NWS

Home | Current Version | Previous Version | Graphics & Text | Print | Product List | Glossary On
Versions: 1 2 3 4 5 6 7 8 9 10 11 12 13 14 15 16 17 18 19 20 21 22 23 24 25 26 27 28 29 30 31 32 33 34 35 36 37 38 39 40 41 42 43 44 45 46 47 48 49 50
000
ASUS43 KIND 161509
RWRIN

WEATHER ROUNDUP FOR INDIANA
NATIONAL WEATHER SERVICE INDIANAPOLIS IN
1000 AM EST SAT DEC 16 2017

NOTE: "FAIR" INDICATES FEW OR NO CLOUDS BELOW 12,000 FEET WITH NO
SIGNIFICANT WEATHER AND/OR OBSTRUCTIONS TO VISIBILITY.

* - STATION DOES NOT REPORT WEATHER SUCH AS PRECIPITATION OR FOG.

+ - STATION NOT QUALITY CONTROLLED BY THE NATIONAL WEATHER SERVICE.
    USE DATA WITH CAUTION...ESPECIALLY DEWPOINT AND RELATIVE
    HUMIDITY OBSERVATIONS.

INZ001>003-010>013-019-020-161600-
NORTHWEST INDIANA

CITY           SKY/WX    TMP DP  RH WIND       PRES   REMARKS
GARY /AIRPORT/ MOSUNNY   36  23  60 SW9       29.89S WCI  29
KNOX *+        SUNNY     34  27  75 SW10      29.92R WCI  26
LA PORTE +     SUNNY     32  25  74 SW8       29.91R WCI  25
MICHIGAN CITY+ SUNNY     36  27  69 SW8       29.91R WCI  29
MONTICELLO +   SUNNY     36  25  63 SW13      29.94R WCI  27
RENSSELAER +   SUNNY     36  21  55 SW16G23   29.93R WCI  26
VALPARAISO     SUNNY     37  26  64 SW12      29.91R WCI  29

$$

LMZ046-743>745-161600-
SOUTHERN LAKE MICHIGAN

STATION/POSITION TIME  TEMP    WIND        PRES    WAVE
                       AIR SEA DIR/SP/G            HT
                 (UTC) (F)     (DEG/KT/KT) (MB)    (FT)
BURNS HARBOR     1440   36     210/ 10/ 18 1012.9R
MICHIGAN CITY    1440   36     200/ 15/ 17   N/A

$$

INZ004-005-014>016-021>024-161600-
NORTH CENTRAL INDIANA

CITY           SKY/WX    TMP DP  RH WIND       PRES   REMARKS
ELKHART        SUNNY     36  25  64 SW8       29.92R WCI  29
GOSHEN         CLOUDY    34  26  72 SW13      29.92R WCI  25
LOGANSPORT +   SUNNY     36  27  69 SW13G18   29.96R WCI  27
PERU/GRISSOM   SUNNY     37  26  65 SW15      29.94R WCI  28
ROCHESTER +    SUNNY     36  28  75 SW7       29.94R WCI  30
SOUTH BEND     CLOUDY    34  26  72 SW10      29.92R WCI  26
WARSAW +       SUNNY     34  27  75 SW7       29.92S WCI  28

$$

INZ006>009-017-018-025>027-161600-
NORTHEAST INDIANA

CITY           SKY/WX    TMP DP  RH WIND       PRES   REMARKS
AUBURN +       CLOUDY    36  27  69 SW9       29.94R WCI  29
FORT WAYNE     MOSUNNY   35  27  72 SW16      29.95R WCI  25
HUNTINGTON +   SUNNY     35  25  66 SW10G17   29.96R WCI  27

$$

INZ028-029-035-036-043>045-051>053-161600-
WEST CENTRAL INDIANA

CITY           SKY/WX    TMP DP  RH WIND       PRES   REMARKS
CRAWFORDSVL +  SUNNY     34  27  75 SW15G23   29.99R WCI  24
GREENCASTLE +  SUNNY     36  27  69 SW8       30.01S WCI  29
LAFAYETTE      SUNNY     37  26  64 SW10G21   29.96R WCI  30
TERRE HAUTE    SUNNY     37  27  67 SW16G23   30.03R WCI  28

$$

INZ030>032-037>040-046>048-054>057-064-065-161600-
CENTRAL INDIANA

CITY           SKY/WX    TMP DP  RH WIND       PRES   REMARKS
ANDERSON       SUNNY     36  27  69 SW17G29   30.00R WCI  25
COLUMBUS       SUNNY     36  27  69 S12       30.07R WCI  27
FRANKFORT +    SUNNY     39  29  65 SW18G24   29.98R WCI  30
GREENWOOD *+   SUNNY     39  30  70 SW13G18   30.02F WCI  31
INDIANAPOLIS   SUNNY     37  27  67 SW15      30.00F WCI  28
-EAGLE CREEK   SUNNY     37  26  64 S15G24    29.99S WCI  28
KOKOMO +       SUNNY     36  26  67 SW16      29.97R WCI  26
MARION +       SUNNY     35  27  73 SW17      29.97R WCI  24
MT COMFORT *+  SUNNY     36  30  80 SW14G20   30.01R WCI  27
SHELBYVILLE    SUNNY     35  26  69 S15       30.03S WCI  25
ZIONSVILLE +   SUNNY     36  26  68 SW17G30   29.98R WCI  26

$$

INZ033-034-041-042-049-050-058-059-161600-
EAST CENTRAL INDIANA

CITY           SKY/WX    TMP DP  RH WIND       PRES   REMARKS
MUNCIE         SUNNY     38  26  62 SW17      29.97S WCI  28
RICHMOND +     SUNNY     34  28  80 SW16      30.03S WCI  23

$$

INZ060-061-067>069-081>083-085>088-161600-
SOUTHWEST INDIANA

CITY           SKY/WX    TMP DP  RH WIND       PRES   REMARKS
EVANSVILLE     SUNNY     37  30  75 SW14G21   30.14R WCI  28
HUNTINGBURG +  SUNNY     37  28  70 S14       30.13R WCI  28
WASHINGTON +   SUNNY     37  27  66 S13       30.08S WCI  29

$$

INZ062-063-066-070>080-084-089>092-161600-
SOUTH CENTRAL AND SOUTHEAST INDIANA

CITY           SKY/WX    TMP DP  RH WIND       PRES   REMARKS
BEDFORD +      SUNNY     37  28  70 SW13      30.08R WCI  29
BLOOMINGTON    SUNNY     37  26  64 SW13      30.05R WCI  29
MADISON *+     SUNNY     36  27  69 S10       30.12R WCI  28
NORTH VERNON + SUNNY     34  27  75 S10       30.09R WCI  26
SEYMOUR +      SUNNY     39  28  65 SW12      30.09R WCI  32

$$




USA.gov is the U.S. government's official web portal to all federal, state and local government web resources and services.